Current weather by "City, St" or "zip code"  
 

Current Conditions: Sheldon, IA

A Few Clouds


25.0 F

Last Updated on Oct 23 2020, 8:55 pm CDT
Humidity: 93%
Wind Speed: NW 9.2 mph
Barometer 30.39 in
Dewpoint: 23.0 F
Visibility: 10.00 mi
Precip: --
Heat Index: NA
Wind Chill: 16 F
Current conditions at:

Sheldon, IA (KSHL)

Lat: 43.21667 Lon: 95.83333

Local Radar Image active severe weather and emergency alerts image image weather storm and storm spotter reports image weather observation monitoring service image
Local
Radar
Active
Alerts
Storm Reports Obs
Monitoring

Sign-up For Email & Text Message Weather Alert Notification Services



Advertise Here

Observation History for Sheldon, IA


Time Wind
(mph)
Vis
(mi)
Weather Precip (in) Temperature (F) Relative
Humidity
Wind
Chill
(F)
Heat
Index
(F)
Pressure
Air Dwpt altimeter
(in)
sea level
(mb)
Rmks
8:55 pm CDT NW 9.2 10.00 A Few Clouds -- 25.0 23.0 93% 16 NA 30.39 M
7:55 pm CDT NW 9.2 10.00 Partly Cloudy -- 27.0 23.0 86% 18 NA 30.39 M
6:55 pm CDT NW 9.2 10.00 Overcast -- 30.0 23.0 75% 22 NA 30.39 M
5:55 pm CDT NW 11.5 G 18.4 10.00 Mostly Cloudy -- 30.0 21.2 69% 20 NA 30.38 M
4:55 pm CDT N 12.7 10.00 Overcast -- 32.0 23.0 69% 22 NA 30.38 M
3:55 pm CDT N 12.7 G 19.6 NULL Overcast -- 32.0 23.0 69% 22 NA 30.38 M
2:55 pm CDT N 16.1 G 23.0 10.00 Overcast -- 34.0 24.8 70% 24 NA 30.36 M
1:55 pm CDT N 19.6 G 28.8 10.00 Mostly Cloudy -- 36.0 24.8 65% 25 NA 30.35 M
12:55 pm CDT N 25.3 G 31.1 10.00 Mostly Cloudy and Breezy -- 36.0 26.6 70% 24 NA 30.35 M
11:55 am CDT N 23.0 G 29.9 10.00 Overcast and Breezy -- 34.0 28.4 81% 22 NA 30.35 M
10:55 am CDT N 26.5 G 32.2 10.00 Overcast and Windy -- 32.0 28.4 87% 18 NA 30.33 M
9:55 am CDT N 19.6 G 29.9 10.00 Overcast -- 32.0 28.4 87% 20 NA 30.33 M
8:55 am CDT N 19.6 G 27.6 10.00 Overcast -- 32.0 30.2 93% 20 NA 30.30 M
7:55 am CDT N 17.3 7.00 Overcast -- 32.0 32.0 100% 21 NA 30.27 M
6:55 am CDT N 19.6 6.00 Light Snow -- 32.0 32.0 100% 20 NA 30.26 M
5:55 am CDT N 18.4 G 26.5 10.00 Light Snow -- 32.0 32.0 100% 20 NA 30.24 M
4:55 am CDT N 17.3 G 23.0 9.00 Light Snow -- 32.0 32.0 100% 21 NA 30.20 M
3:55 am CDT N 13.8 10.00 Overcast -- 32.0 32.0 100% 22 NA 30.20 M
2:55 am CDT N 17.3 G 24.2 10.00 Overcast -- 32.0 32.0 100% 21 NA 30.18 M
1:55 am CDT N 21.9 6.00 Fog/Mist and Breezy -- 32.0 32.0 100% 19 NA 30.17 M
12:55 am CDT N 18.4 G 27.6 10.00 Overcast -- 32.0 32.0 100% 20 NA 30.15 M
11:55 pm CDT N 18.4 G 24.2 5.00 Fog/Mist -- 32.0 32.0 100% 20 NA 30.13 M
10:55 pm CDT N 20.7 G 27.6 10.00 Overcast and Breezy -- 32.0 32.0 100% 20 NA 30.11 M
9:55 pm CDT N 16.1 G 25.3 10.00 Overcast -- 32.0 32.0 100% 21 NA 30.08 M

Regional Weather Observation


Sheldon, IA (KSHL)

A Few Clouds
25.0 F

Worthington, Worthington Municipal Airport, MN (KOTG)

Fair
21.0 F

Pipestone Municipal Airport, MN (KPQN)

NULL
23.0 F

Slayton Municipal Airport, MN (KDVP)

Fair
18.0 F

Sioux Falls, Foss Field, SD (KFSD)

Fair
23.0 F

Spencer Municipal Airport, IA (KSPW)

Overcast
31.0 F